Dunkirk, NY
on Thursday, December 7, 2017

Thursday
       
Previous Day Next Day
Daily Summary
 ActualAverageRecord
Temperature
Mean Temperature °F °C °F °C  
Max Temperature 36°F 2°C 40°F 4°C 70°F 21°C (1998)
Min Temperature 24°F -4°C 28°F -2°C 0°F -17°C (1926)
Degree Days
Heating Degree Days 35    
Moisture
Dew Point 25°F -4°C   
Average Humidity 85    
Maximum Humidity 100    
Minimum Humidity 52    
Precipitation
Precipitation 0.34 in / 8.64 cm in / cm in / cm ()
Wind
Wind Speed 14 mph / 23 km/h   
Max Wind Speed 26 mph / 42 km/h   
Max Gust Speed 41 mph / 66 km/h   
Visibility 3 miles / 4 kilometers   
Events Fog , Snow , Thunderstorm   
Averages and records for this station are not official NWS values.
Key: T is trace of precipitation, MM is missing value
Source: NWS Daily Summary
Seasonal Weather Averages
Time(EST)TemperatureDew PointHumidity Pressure Visibility Wind DirectionWind SpeedGust SpeedPrecipitationEvents Conditions
12:53 AM 36.0°F 2.2°C 21.0°F -6.1°C 55% 29.93 in / 1013.4 hPa 10.0 miles / 16.1 kilometers West 20.7 mph / 33.3 km/h 35.7 mph / 57.4 km/h N/A   Overcast
1:53 AM 36.0°F 2.2°C 19.9°F -6.7°C 52% 29.94 in / 1013.7 hPa 10.0 miles / 16.1 kilometers WSW 18.4 mph / 29.6 km/h 28.8 mph / 46.3 km/h N/A   Overcast
2:53 AM 36.0°F 2.2°C 21.9°F -5.6°C 57% 29.95 in / 1014.1 hPa 10.0 miles / 16.1 kilometers WSW 19.6 mph / 31.5 km/h 26.5 mph / 42.6 km/h N/A   Overcast
3:53 AM 34.0°F 1.1°C 21.0°F -6.1°C 59% 29.94 in / 1013.8 hPa 10.0 miles / 16.1 kilometers SW 10.4 mph / 16.7 km/h - N/A   Overcast
4:53 AM 33.1°F 0.6°C 19.9°F -6.7°C 59% 29.94 in / 1013.6 hPa 10.0 miles / 16.1 kilometers SW 11.5 mph / 18.5 km/h 19.6 mph / 31.5 km/h N/A   Overcast
5:53 AM 33.1°F 0.6°C 19.0°F -7.2°C 56% 29.94 in / 1013.7 hPa 10.0 miles / 16.1 kilometers SSW 13.8 mph / 22.2 km/h - N/A   Overcast
6:53 AM 32.0°F 0.0°C 19.0°F -7.2°C 59% 29.95 in / 1014.1 hPa 10.0 miles / 16.1 kilometers SSW 12.7 mph / 20.4 km/h - N/A   Overcast
7:53 AM 32.0°F 0.0°C 21.0°F -6.1°C 64% 29.95 in / 1014.2 hPa 8.0 miles / 12.9 kilometers SW 15.0 mph / 24.1 km/h - 0.00 in / 0.0 cm Snow Light Snow
8:34 AM 30.0°F -1.1°C 24.1°F -4.4°C 79% 29.95 in / 1014.1 hPa 1.0 miles / 1.6 kilometers SW 12.7 mph / 20.4 km/h 20.7 mph / 33.3 km/h 0.00 in / 0.0 cm Snow Light Snow
8:50 AM 28.4°F -2.0°C 24.8°F -4.0°C 86% 29.95 in / 1014.1 hPa 0.8 miles / 1.2 kilometers SW 8.1 mph / 13.0 km/h 19.6 mph / 31.5 km/h 0.00 in / 0.0 cm Snow Light Snow
8:53 AM 28.9°F -1.7°C 25.0°F -3.9°C 85% 29.97 in / 1014.9 hPa 0.8 miles / 1.2 kilometers SW 11.5 mph / 18.5 km/h 17.3 mph / 27.8 km/h 0.00 in / 0.0 cm Snow Light Snow
8:58 AM 28.9°F -1.7°C 25.0°F -3.9°C 85% 29.95 in / 1014.1 hPa 1.0 miles / 1.6 kilometers SW 10.4 mph / 16.7 km/h 17.3 mph / 27.8 km/h 0.00 in / 0.0 cm Snow Light Snow
9:12 AM 28.9°F -1.7°C 26.1°F -3.3°C 89% 29.95 in / 1014.1 hPa 1.8 miles / 2.8 kilometers SW 8.1 mph / 13.0 km/h - 0.00 in / 0.0 cm Snow Light Snow
9:21 AM 28.9°F -1.7°C 25.0°F -3.9°C 85% 29.96 in / 1014.4 hPa 0.8 miles / 1.2 kilometers SW 15.0 mph / 24.1 km/h 20.7 mph / 33.3 km/h 0.00 in / 0.0 cm Snow Light Snow
9:41 AM 28.9°F -1.7°C 26.1°F -3.3°C 89% 29.96 in / 1014.4 hPa 0.5 miles / 0.8 kilometers SW 9.2 mph / 14.8 km/h - 0.00 in / 0.0 cm Fog , Snow Snow
9:53 AM 28.0°F -2.2°C 26.1°F -3.3°C 92% 29.99 in / 1015.3 hPa 0.5 miles / 0.8 kilometers SW 11.5 mph / 18.5 km/h - 0.00 in / 0.0 cm Fog , Snow Snow
10:07 AM 28.0°F -2.2°C 26.1°F -3.3°C 92% 29.96 in / 1014.4 hPa 1.2 miles / 2.0 kilometers SW 9.2 mph / 14.8 km/h - 0.00 in / 0.0 cm Snow Light Snow
10:18 AM 28.9°F -1.7°C 26.1°F -3.3°C 89% 29.97 in / 1014.8 hPa 0.8 miles / 1.2 kilometers WSW 13.8 mph / 22.2 km/h 19.6 mph / 31.5 km/h 0.00 in / 0.0 cm Snow Light Snow
10:53 AM 28.0°F -2.2°C 26.1°F -3.3°C 92% 29.99 in / 1015.3 hPa 0.8 miles / 1.2 kilometers WSW 10.4 mph / 16.7 km/h - 0.00 in / 0.0 cm Snow Light Snow
11:14 AM 28.9°F -1.7°C 26.1°F -3.3°C 89% 29.96 in / 1014.4 hPa 1.5 miles / 2.4 kilometers WSW 6.9 mph / 11.1 km/h - 0.00 in / 0.0 cm Snow Light Snow
11:16 AM 28.9°F -1.7°C 26.1°F -3.3°C 89% 29.96 in / 1014.4 hPa 3.0 miles / 4.8 kilometers West 6.9 mph / 11.1 km/h - 0.00 in / 0.0 cm Snow Light Snow
11:30 AM 28.9°F -1.7°C 25.0°F -3.9°C 85% 29.95 in / 1014.1 hPa 2.0 miles / 3.2 kilometers West 8.1 mph / 13.0 km/h - 0.00 in / 0.0 cm Snow Light Snow
11:36 AM 28.9°F -1.7°C 25.0°F -3.9°C 85% 29.95 in / 1014.1 hPa 1.0 miles / 1.6 kilometers West 8.1 mph / 13.0 km/h - 0.00 in / 0.0 cm Snow Light Snow
11:43 AM 28.9°F -1.7°C 26.1°F -3.3°C 89% 29.94 in / 1013.8 hPa 0.5 miles / 0.8 kilometers WSW 13.8 mph / 22.2 km/h 21.9 mph / 35.2 km/h 0.00 in / 0.0 cm Fog , Snow Snow
11:53 AM 28.9°F -1.7°C 26.1°F -3.3°C 89% 29.96 in / 1014.6 hPa 0.2 miles / 0.4 kilometers WSW 13.8 mph / 22.2 km/h - 0.00 in / 0.0 cm Fog , Snow Heavy Snow
12:36 PM 28.9°F -1.7°C 28.9°F -1.7°C 100% 29.92 in / 1013.1 hPa 0.5 miles / 0.8 kilometers WSW 12.7 mph / 20.4 km/h - 0.01 in / 0.3 cm Fog , Snow , Thunderstorm Thunderstorms and Snow
12:41 PM 30.0°F -1.1°C 28.9°F -1.7°C 96% 29.92 in / 1013.1 hPa 1.0 miles / 1.6 kilometers WSW 11.5 mph / 18.5 km/h - 0.01 in / 0.3 cm Snow , Thunderstorm Light Thunderstorms and Snow
12:45 PM 30.0°F -1.1°C 28.0°F -2.2°C 92% 29.92 in / 1013.1 hPa 1.5 miles / 2.4 kilometers WSW 11.5 mph / 18.5 km/h - 0.01 in / 0.3 cm Snow Light Snow
12:53 PM 30.9°F -0.6°C 28.0°F -2.2°C 89% 29.94 in / 1013.7 hPa 2.5 miles / 4.0 kilometers West 12.7 mph / 20.4 km/h 24.2 mph / 38.9 km/h 0.01 in / 0.3 cm Snow Light Snow
1:01 PM 30.9°F -0.6°C 26.1°F -3.3°C 82% 29.92 in / 1013.1 hPa 3.0 miles / 4.8 kilometers West 16.1 mph / 25.9 km/h 24.2 mph / 38.9 km/h 0.00 in / 0.0 cm Snow Light Snow
1:04 PM 30.0°F -1.1°C 26.1°F -3.3°C 85% 29.92 in / 1013.1 hPa 1.5 miles / 2.4 kilometers WSW 15.0 mph / 24.1 km/h 23.0 mph / 37.0 km/h 0.00 in / 0.0 cm Snow Light Snow
1:07 PM 30.0°F -1.1°C 27.0°F -2.8°C 88% 29.92 in / 1013.1 hPa 1.0 miles / 1.6 kilometers West 16.1 mph / 25.9 km/h 24.2 mph / 38.9 km/h 0.00 in / 0.0 cm Snow Light Snow
1:11 PM 30.0°F -1.1°C 27.0°F -2.8°C 88% 29.92 in / 1013.1 hPa 0.8 miles / 1.2 kilometers West 12.7 mph / 20.4 km/h 24.2 mph / 38.9 km/h 0.00 in / 0.0 cm Snow Light Snow
1:23 PM 30.0°F -1.1°C 28.0°F -2.2°C 92% 29.92 in / 1013.1 hPa 1.2 miles / 2.0 kilometers WSW 10.4 mph / 16.7 km/h - 0.00 in / 0.0 cm Snow Light Snow
1:26 PM 30.0°F -1.1°C 28.0°F -2.2°C 92% 29.91 in / 1012.8 hPa 2.5 miles / 4.0 kilometers West 10.4 mph / 16.7 km/h 17.3 mph / 27.8 km/h 0.00 in / 0.0 cm Snow Light Snow
1:29 PM 30.0°F -1.1°C 27.0°F -2.8°C 88% 29.92 in / 1013.1 hPa 1.0 miles / 1.6 kilometers SW 23.0 mph / 37.0 km/h 29.9 mph / 48.2 km/h 0.00 in / 0.0 cm Snow Light Snow
1:36 PM 28.9°F -1.7°C 27.0°F -2.8°C 92% 29.92 in / 1013.1 hPa 0.2 miles / 0.4 kilometers West 11.5 mph / 18.5 km/h 29.9 mph / 48.2 km/h 0.01 in / 0.3 cm Fog , Snow Heavy Snow
1:53 PM 28.9°F -1.7°C 28.0°F -2.2°C 96% 29.94 in / 1013.9 hPa 0.2 miles / 0.4 kilometers West 15.0 mph / 24.1 km/h 26.5 mph / 42.6 km/h 0.06 in / 1.5 cm Fog , Snow Heavy Snow
2:00 PM 28.0°F -2.2°C 28.0°F -2.2°C 100% 29.92 in / 1013.1 hPa 0.2 miles / 0.4 kilometers West 12.7 mph / 20.4 km/h 26.5 mph / 42.6 km/h 0.02 in / 0.5 cm Fog , Snow Heavy Snow
2:53 PM 28.0°F -2.2°C 27.0°F -2.8°C 96% 29.93 in / 1013.3 hPa 0.2 miles / 0.4 kilometers South 26.5 mph / 42.6 km/h 41.4 mph / 66.7 km/h 0.14 in / 3.6 cm Fog , Snow Heavy Snow
3:32 PM 28.0°F -2.2°C 27.0°F -2.8°C 96% 29.93 in / 1013.4 hPa 0.2 miles / 0.4 kilometers WSW 15.0 mph / 24.1 km/h 27.6 mph / 44.4 km/h 0.04 in / 1.0 cm Fog , Snow Heavy Snow
3:44 PM 28.0°F -2.2°C 27.0°F -2.8°C 96% 29.93 in / 1013.4 hPa 0.2 miles / 0.4 kilometers SW 11.5 mph / 18.5 km/h 26.5 mph / 42.6 km/h 0.06 in / 1.5 cm Fog , Snow Heavy Snow
3:51 PM 28.4°F -2.0°C 26.6°F -3.0°C 93% 29.93 in / 1013.4 hPa 0.2 miles / 0.4 kilometers SW 18.4 mph / 29.6 km/h 24.2 mph / 38.9 km/h 0.07 in / 1.8 cm Fog , Snow Heavy Snow
3:53 PM 28.0°F -2.2°C 27.0°F -2.8°C 96% 29.96 in / 1014.5 hPa 0.2 miles / 0.4 kilometers SW 16.1 mph / 25.9 km/h 24.2 mph / 38.9 km/h 0.07 in / 1.8 cm Fog , Snow Heavy Snow
4:21 PM 28.0°F -2.2°C 27.0°F -2.8°C 96% 29.94 in / 1013.8 hPa 1.0 miles / 1.6 kilometers SSW 13.8 mph / 22.2 km/h - 0.01 in / 0.3 cm Snow Light Snow
4:28 PM 28.0°F -2.2°C 26.1°F -3.3°C 92% 29.94 in / 1013.8 hPa 0.5 miles / 0.8 kilometers SW 15.0 mph / 24.1 km/h - 0.01 in / 0.3 cm Fog , Snow Snow
4:53 PM 28.0°F -2.2°C 26.1°F -3.3°C 92% 29.97 in / 1014.7 hPa 1.0 miles / 1.6 kilometers SW 16.1 mph / 25.9 km/h 25.3 mph / 40.7 km/h 0.01 in / 0.3 cm Snow Light Snow
5:01 PM 28.0°F -2.2°C 27.0°F -2.8°C 96% 29.94 in / 1013.8 hPa 1.8 miles / 2.8 kilometers SW 12.7 mph / 20.4 km/h - 0.00 in / 0.0 cm Snow Light Snow
5:10 PM 28.0°F -2.2°C 26.1°F -3.3°C 92% 29.94 in / 1013.8 hPa 2.5 miles / 4.0 kilometers SSW 15.0 mph / 24.1 km/h 24.2 mph / 38.9 km/h 0.00 in / 0.0 cm Snow Light Snow
5:18 PM 28.0°F -2.2°C 26.1°F -3.3°C 92% 29.94 in / 1013.8 hPa 5.0 miles / 8.0 kilometers SSW 11.5 mph / 18.5 km/h - 0.00 in / 0.0 cm Snow Light Snow
5:27 PM 28.0°F -2.2°C 26.1°F -3.3°C 92% 29.95 in / 1014.1 hPa 9.0 miles / 14.5 kilometers SW 11.5 mph / 18.5 km/h - 0.00 in / 0.0 cm   Overcast
5:53 PM 28.9°F -1.7°C 23.0°F -5.0°C 78% 29.99 in / 1015.4 hPa 4.0 miles / 6.4 kilometers WSW 15.0 mph / 24.1 km/h 26.5 mph / 42.6 km/h 0.00 in / 0.0 cm Snow Light Snow
6:53 PM 30.0°F -1.1°C 19.0°F -7.2°C 64% 30.00 in / 1015.9 hPa 9.0 miles / 14.5 kilometers West 18.4 mph / 29.6 km/h 27.6 mph / 44.4 km/h 0.00 in / 0.0 cm   Overcast
7:53 PM 30.0°F -1.1°C 18.0°F -7.8°C 61% 30.01 in / 1016.3 hPa 10.0 miles / 16.1 kilometers WSW 15.0 mph / 24.1 km/h 26.5 mph / 42.6 km/h 0.00 in / 0.0 cm   Overcast
8:53 PM 30.0°F -1.1°C 19.0°F -7.2°C 64% 30.03 in / 1016.8 hPa 8.0 miles / 12.9 kilometers WSW 15.0 mph / 24.1 km/h 25.3 mph / 40.7 km/h 0.00 in / 0.0 cm Snow Light Snow
9:04 PM 28.0°F -2.2°C 21.0°F -6.1°C 75% 30.00 in / 1015.8 hPa 2.0 miles / 3.2 kilometers SW 10.4 mph / 16.7 km/h - 0.00 in / 0.0 cm Snow Light Snow
9:13 PM 28.9°F -1.7°C 19.9°F -6.7°C 69% 30.00 in / 1015.8 hPa 7.0 miles / 11.3 kilometers West 10.4 mph / 16.7 km/h 20.7 mph / 33.3 km/h 0.00 in / 0.0 cm Snow Light Snow
9:39 PM 28.0°F -2.2°C 21.0°F -6.1°C 75% 30.01 in / 1016.1 hPa 1.8 miles / 2.8 kilometers SW 17.3 mph / 27.8 km/h 24.2 mph / 38.9 km/h 0.00 in / 0.0 cm Snow Light Snow
9:53 PM 27.0°F -2.8°C 24.1°F -4.4°C 89% 30.04 in / 1017.0 hPa 3.0 miles / 4.8 kilometers SSW 13.8 mph / 22.2 km/h - 0.00 in / 0.0 cm Snow Light Snow
10:01 PM 27.0°F -2.8°C 25.0°F -3.9°C 92% 30.01 in / 1016.1 hPa 2.5 miles / 4.0 kilometers SW 15.0 mph / 24.1 km/h - 0.00 in / 0.0 cm Snow Light Snow
10:05 PM 27.0°F -2.8°C 24.1°F -4.4°C 89% 30.00 in / 1015.8 hPa 1.0 miles / 1.6 kilometers SW 13.8 mph / 22.2 km/h - 0.00 in / 0.0 cm Snow Light Snow
10:12 PM 26.1°F -3.3°C 25.0°F -3.9°C 96% 30.00 in / 1015.8 hPa 0.5 miles / 0.8 kilometers SSW 11.5 mph / 18.5 km/h - 0.00 in / 0.0 cm Fog , Snow Snow
10:22 PM 26.1°F -3.3°C 24.1°F -4.4°C 92% 30.00 in / 1015.8 hPa 1.0 miles / 1.6 kilometers SSW 11.5 mph / 18.5 km/h - 0.01 in / 0.3 cm Snow Light Snow
10:30 PM 26.1°F -3.3°C 24.1°F -4.4°C 92% 30.00 in / 1015.8 hPa 0.2 miles / 0.4 kilometers SSW 11.5 mph / 18.5 km/h - 0.02 in / 0.5 cm Fog , Snow Heavy Snow
10:53 PM 26.1°F -3.3°C 24.1°F -4.4°C 92% 30.03 in / 1016.7 hPa 0.5 miles / 0.8 kilometers SSW 13.8 mph / 22.2 km/h - 0.05 in / 1.3 cm Fog , Snow Snow
11:02 PM 26.1°F -3.3°C 24.1°F -4.4°C 92% 30.00 in / 1015.8 hPa 1.5 miles / 2.4 kilometers SSW 12.7 mph / 20.4 km/h - 0.00 in / 0.0 cm Snow Light Snow
11:08 PM 26.1°F -3.3°C 24.1°F -4.4°C 92% 30.00 in / 1015.8 hPa 2.0 miles / 3.2 kilometers SSW 10.4 mph / 16.7 km/h - 0.00 in / 0.0 cm Snow Light Snow
11:14 PM 26.1°F -3.3°C 24.1°F -4.4°C 92% 29.99 in / 1015.5 hPa 1.0 miles / 1.6 kilometers SSW 13.8 mph / 22.2 km/h - 0.00 in / 0.0 cm Snow Light Snow
11:16 PM 26.1°F -3.3°C 24.1°F -4.4°C 92% 29.99 in / 1015.5 hPa 0.8 miles / 1.2 kilometers SSW 13.8 mph / 22.2 km/h - 0.00 in / 0.0 cm Snow Light Snow
11:32 PM 25.0°F -3.9°C 24.1°F -4.4°C 96% 29.99 in / 1015.5 hPa 0.8 miles / 1.2 kilometers SSW 13.8 mph / 22.2 km/h - 0.00 in / 0.0 cm Snow Light Snow
11:45 PM 25.0°F -3.9°C 24.1°F -4.4°C 96% 29.99 in / 1015.5 hPa 1.2 miles / 2.0 kilometers SSW 13.8 mph / 22.2 km/h - 0.00 in / 0.0 cm Snow Light Snow
11:51 PM 24.8°F -4.0°C 23.0°F -5.0°C 93% 29.98 in / 1015.1 hPa 3.0 miles / 4.8 kilometers SSW 12.7 mph / 20.4 km/h - 0.00 in / 0.0 cm Snow Light Snow
11:53 PM 25.0°F -3.9°C 23.0°F -5.0°C 92% 30.01 in / 1016.2 hPa 2.5 miles / 4.0 kilometers SSW 13.8 mph / 22.2 km/h - 0.00 in / 0.0 cm Snow Light Snow